Starlink 35638

operational
NORAD ID: 66169 Int'l Des: 2025-240 Owner: SPXS Country: US Constellation: starlink
LEOCIRCULAR

Über Starlink 35638

Beschreibung wird geladen...

Live-Position

3D-Globus wird geladen...

Nächste Überflüge

Höhenverlauf

Altitude vs Time

uPlot chart will show altitude changes over time

Zweizeiliger Elementsatz

1 66169C 25240AA 25298.74284722 .00618710 00000+0 10016-2 0 2987
2 66169 53.1575 338.8140 0009119 266.1675 328.7054 16.02006146 12
Epoch: 25. Okt. 2025 • Age: 159 hours

Aktueller Status

Höhe 246.2 km
Geschwindigkeit 7.76 km/s
Subsatellitenpunkt 9.06°N, 150.21°W
Startdatum 25. Okt. 2025
Alter 6 days
Typ internet

Technische Details

Klassifizierung Payload
Masse 575.00 kg
Trockenmasse 530.00 kg
Gesamtmasse 575.00 kg
Länge 0.30 m
Durchmesser 4.10 m
Spannweite 29.00 m
Form Box + pan
Hersteller SPXS
Bus-Typ Starlink V2MO
Phasenstatus In Orbit
Besitzer/Staat SPXS/US

Große Konstellationen

Loading constellations...